User: anonymous   Login
Location: Unspecified
(0.0000°N, 0.0000°E)
Time: 05:50:04
(UTC+00:00)
Language:

TBA - TO BE ASSIGNED - Orbit

View from above orbital plane
View from above orbital plane
View from above satellite
View from above satellite

Ground track
Ground track

The orbit is defined by the following mean orbital elements,

1 67578U          26145.43997439 +.00000000 +00000-0 +10198-2 0 00003
2 67578  97.2858 205.7275 0000445 112.9668 247.1622 15.33442513    03
Epoch (UTC): 25 May 2026 10:33:33
Eccentricity: 0.0000445
inclination: 97.2858°
perigee height: 465 km
apogee height: 466 km
right ascension of ascending node: 205.7275°
argument of perigee: 112.9668°
revolutions per day: 15.33442513
mean anomaly at epoch: 247.1622°

The dashed part of the orbit path shows where the satellite is in the earth's shadow,  

DLR